Theta_e
309 309 309 308 307 307 309 309 309 310 310 310 310 310 311 311 311 311 310 310 309 310 310 310 309 310 309 307 307 306 308 308 308 309 308 305 304 303 302 302 302 303 303
309 309 309 309 309 308 308 309 310 309 309 310 310 310 310 310 309 309 309 309 309 309 310 310 309 309 308 308 307 305 307 308 308 308 307 306 304 303 302 301 301 301 302
308 307 308 308 307 308 309 308 309 309 308 308 309 310 309 309 309 307 307 307 307 308 309 310 309 309 308 307 307 305 307 307 308 308 306 306 305 303 302 301 300 300 301
307 307 308 308 308 308 308 308 307 307 306 307 307 307 308 307 306 305 304 304 304 307 308 307 307 307 307 307 307 306 305 307 308 307 307 307 306 305 303 301 299 300 299
308 308 308 308 306 306 306 307 306 307 307 306 305 305 305 305 304 304 303 303 302 306 307 308 307 308 307 308 307 306 306 307 308 307 307 307 306 305 304 302 300 299 300
309 308 308 306 306 306 305 305 304 304 305 304 303 302 302 302 302 302 302 302 303 307 308 308 307 307 306 306 307 307 309 307 307 308 308 308 306 305 301 301 302 301 300
308 308 306 305 305 304 303 302 302 302 302 302 301 301 301 301 301 302 305 306 307 307 306 305 305 305 306 307 308 308 308 308 308 308 307 307 304 303 300 300 300 300 301
306 306 306 305 303 302 301 301 301 301 300 301 301 301 301 302 302 304 306 306 305 304 304 304 304 305 307 307 307 307 308 308 308 307 307 305 303 303 300 300 301 300 299
307 306 304 302 302 301 301 300 300 300 301 301 301 303 302 302 302 304 304 304 303 304 303 304 305 305 306 306 306 306 307 307 306 306 306 306 305 305 305 302 302 301 300
305 304 302 302 301 301 300 301 301 301 301 301 303 303 302 302 303 303 303 304 304 303 304 304 304 305 306 306 307 307 307 307 306 305 304 304 305 305 305 305 304 306 306
304 303 303 302 302 301 301 303 304 304 303 303 303 302 302 303 303 304 304 304 304 304 304 303 304 305 306 306 306 306 306 306 304 303 303 304 305 306 307 307 306 305 306
303 303 303 303 303 303 303 303 303 303 303 303 303 303 304 304 304 304 305 305 306 306 306 305 304 303 305 306 306 307 306 305 304 301 300 301 302 302 302 302 302 303 304
303 303 303 303 303 303 302 303 303 303 303 304 304 304 304 305 306 306 306 306 306 306 306 304 303 303 304 306 306 306 300 303 304 305 305 305 305 304 304 305 305 305 305
303 304 303 303 303 303 303 303 303 303 304 304 304 304 304 305 306 306 306 307 307 307 306 305 305 305 304 303 303 302 303 303 306 306 306 307 307 307 306 305 306 307 307
304 306 306 306 306 305 304 304 304 303 304 305 304 304 304 306 306 305 306 306 306 307 306 304 305 306 307 307 307 307 307 307 307 307 307 308 307 307 308 308 307 306 307
306 307 307 306 306 305 305 305 304 304 305 304 304 305 306 306 306 307 307 307 307 307 306 306 307 308 309 309 310 310 310 310 310 310 310 311 311 309 309 309 310 308 309
307 307 306 305 305 306 306 306 306 306 306 306 306 306 307 307 306 306 309 310 310 310 311 311 311 311 311 311 311 311 312 311 311 311 310 311 311 311 310 310 310 310 310
305 307 306 306 307 307 307 307 307 306 305 305 306 308 308 309 309 310 310 310 310 311 311 311 311 310 310 312 311 311 311 310 311 312 312 311 311 311 311 311 311 310 310
307 308 308 308 309 310 310 310 310 310 311 311 311 310 310 310 310 311 307 305 305 306 307 305 302 302 303 305 307 307 306 306 306 307 307 306 310 311 311 311 310 306 308
308 308 308 310 311 311 312 310 310 310 310 310 310 310 311 309 307 306 304 303 303 303 302 302 302 302 301 302 302 303 303 304 305 306 306 305 307 307 307 305 303 303 303
308 309 310 310 311 311 311 311 310 310 310 310 310 310 307 306 305 305 305 302 302 301 301 300 300 300 300 300 300 301 302 303 304 305 305 306 305 305 304 305 304 304 304
309 310 311 311 310 310 310 310 310 309 308 306 305 305 305 305 304 303 303 303 303 301 300 298 297 297 297 298 298 300 302 302 303 305 304 304 305 305 305 305 304 304 305
310 311 311 310 310 310 310 307 306 306 305 305 305 305 305 304 304 303 302 301 299 297 297 297 295 294 295 296 297 299 301 302 303 304 305 303 303 303 304 303 304 304 304
311 309 309 310 310 307 305 306 306 305 305 305 305 304 303 303 303 302 302 301 298 296 294 291 291 291 292 293 296 297 300 302 303 303 303 302 303 303 302 303 302 302 303
310 309 310 311 310 306 305 305 305 304 304 304 304 303 302 301 300 299 299 297 296 295 294 294 294 295 295 295 293 295 300 301 303 303 302 301 301 302 301 301 301 300 301
309 310 311 311 306 305 305 304 304 303 303 303 302 301 300 298 298 297 297 296 296 296 296 295 296 296 296 296 296 296 297 300 301 301 300 299 299 299 300 299 299 300 300
Wind_Speed
19 18 16 20 21 19 15 10 13 12 14 17 18 12 8 8 6 6 4 3 5 5 7 7 7 4 5 7 11 11 8 7 4 4 5 4 8 10 10 10 9 11 14
19 21 15 18 18 18 16 17 14 13 13 15 14 15 10 9 10 10 9 10 13 12 10 7 6 4 6 6 12 12 9 8 6 8 1 2 5 8 10 10 10 9 12
20 19 19 17 18 17 11 13 11 12 14 17 15 15 10 7 3 6 9 9 11 14 11 7 5 4 7 8 11 11 8 10 9 4 1 2 3 6 6 10 12 12 12
22 18 22 16 18 15 13 11 12 13 13 13 12 14 9 6 8 10 11 10 9 10 9 6 5 7 8 8 8 10 9 8 6 2 2 3 4 3 4 7 15 16 17
18 18 17 16 18 17 17 17 17 16 13 12 13 13 10 10 13 14 14 12 9 9 9 5 7 8 4 5 8 8 6 5 4 2 3 3 4 4 4 2 6 10 11
18 16 18 20 20 18 18 17 18 17 15 12 12 12 10 12 13 11 11 8 3 8 7 4 8 8 8 7 6 6 5 2 3 1 4 2 7 6 9 9 2 4 4
16 17 17 18 17 17 18 17 16 14 11 12 12 12 10 11 15 14 9 7 7 7 6 9 7 8 9 6 5 4 5 6 4 3 6 6 7 7 9 13 14 15 3
16 17 18 17 19 19 19 18 14 13 12 9 9 10 10 12 16 15 13 15 11 8 9 9 7 7 8 6 7 12 13 12 9 8 8 7 8 9 10 11 9 3 6
16 16 19 20 19 19 19 18 15 12 13 13 12 12 13 12 14 12 11 11 11 13 13 13 10 9 8 9 13 16 16 14 12 10 8 6 4 3 2 3 1 3 3
16 16 17 17 17 18 17 17 16 14 11 10 11 10 14 15 15 13 11 13 17 18 19 19 16 13 10 11 12 13 13 12 9 10 10 10 10 9 7 5 4 7 6
16 16 17 18 18 17 16 19 19 18 22 19 17 16 14 16 16 16 15 18 20 21 21 21 18 15 15 15 14 14 14 10 8 9 11 13 12 9 6 5 4 5 5
16 17 18 18 18 18 18 18 19 20 21 21 20 19 18 19 19 20 20 18 16 19 17 13 10 10 12 13 11 9 9 8 9 12 12 12 11 10 8 6 3 3 4
16 19 19 19 18 19 22 21 20 20 19 19 18 16 16 16 16 14 15 15 15 14 16 15 16 14 12 12 8 10 23 19 13 9 7 6 5 5 5 6 7 7 6
15 16 19 22 22 22 20 20 20 20 18 17 15 14 15 15 13 12 12 12 12 14 13 16 22 23 21 20 18 18 14 8 5 6 6 6 6 5 3 2 2 1 2
13 15 11 11 14 12 14 16 18 16 13 10 13 15 16 23 25 19 16 14 12 10 13 14 11 11 11 8 4 3 4 5 7 8 9 10 10 8 8 6 9 8 9
14 16 15 13 11 12 13 12 16 14 11 14 14 16 17 15 18 19 16 12 10 8 6 6 7 8 7 7 7 10 8 8 6 6 7 9 12 10 9 6 1 9 6
15 12 10 15 17 21 20 20 18 17 15 16 20 19 16 12 9 9 15 14 10 11 10 11 10 9 10 11 13 16 14 13 12 10 10 13 14 13 8 7 4 4 9
13 14 17 18 18 18 20 21 21 17 17 15 13 12 11 12 14 17 21 17 19 16 13 13 17 22 21 10 10 9 14 19 15 10 11 12 14 7 12 13 9 8 11
20 14 14 14 13 11 10 8 8 7 8 10 12 17 18 17 18 22 26 28 27 30 27 28 29 27 25 27 29 26 26 29 29 25 20 25 16 8 2 9 13 15 11
14 14 12 12 15 17 17 15 15 11 8 7 11 12 16 24 32 30 32 31 31 30 29 28 28 28 30 27 27 27 28 30 29 29 25 28 24 22 15 16 19 21 21
15 8 7 7 9 11 11 9 9 10 9 9 11 14 22 28 28 29 27 30 30 29 26 25 25 25 25 26 28 29 29 30 29 30 31 28 25 21 19 19 14 20 25
8 6 8 10 8 7 8 8 10 12 17 21 24 24 23 23 23 24 24 24 25 25 25 26 26 25 24 25 25 27 28 29 28 25 25 27 27 24 25 18 20 21 23
6 8 11 12 11 3 4 13 19 23 23 22 22 22 22 22 20 19 22 23 24 23 21 20 22 23 22 22 23 23 25 26 27 25 23 24 26 28 27 27 22 18 19
6 4 3 10 16 20 21 22 22 21 21 21 22 23 23 24 24 21 22 20 21 23 25 23 22 22 22 21 21 20 21 23 22 20 22 20 22 23 24 25 24 27 28
4 7 9 13 12 19 17 19 21 22 23 24 23 23 23 23 23 23 20 20 19 20 23 23 24 23 23 23 21 19 17 19 22 19 20 21 20 20 23 23 24 27 24
12 7 6 9 15 17 18 20 19 19 19 20 21 21 21 20 19 21 20 19 18 19 21 22 22 23 23 23 22 19 15 17 18 20 20 23 22 21 21 22 22 25 23
Wind_Direction
349 354 357 357 342 343 337 354 353 349 351 350 352 341 9 14 3 32 45 24 11 350 331 321 323 355 326 349 354 353 356 353 291 292 279 13 4 18 21 21 25 36 37
1 355 4 355 1 360 348 351 347 0 11 9 7 11 27 52 37 24 47 42 27 10 355 337 350 359 345 352 354 350 351 346 333 308 149 3 10 18 22 24 24 31 41
3 1 1 11 358 347 335 353 5 21 32 12 14 23 37 73 72 31 33 22 20 14 2 8 4 352 355 348 349 347 348 344 351 336 78 337 359 26 26 35 39 42 49
350 347 356 8 3 14 14 22 15 5 3 11 33 45 62 62 39 15 1 359 357 5 0 4 6 343 343 347 352 346 329 344 5 54 19 343 332 319 28 55 56 59 68
346 3 21 20 23 27 30 34 33 33 53 73 50 41 29 21 6 342 332 332 326 346 346 352 344 359 353 344 337 338 333 350 43 49 15 354 13 2 348 196 76 59 67
6 24 28 31 34 40 42 43 42 45 51 44 29 23 21 9 352 347 338 327 348 357 1 13 37 352 346 335 326 326 322 24 48 77 357 5 22 43 43 55 144 70 348
26 35 37 28 30 36 27 26 26 31 29 34 35 35 25 18 6 6 8 36 29 82 33 4 11 1 355 41 51 32 73 71 84 71 42 40 44 74 79 82 104 119 137
36 38 35 25 24 22 26 25 23 27 21 32 44 33 36 18 10 29 61 84 75 46 18 27 47 26 39 56 63 87 92 86 80 71 65 76 81 86 87 98 111 123 317
31 44 31 31 37 30 26 25 30 30 28 40 35 27 28 20 26 47 62 61 51 51 52 53 59 56 53 83 98 96 91 86 77 64 62 57 40 64 126 105 42 323 306
44 42 45 37 30 29 31 36 37 35 33 22 19 36 33 43 40 52 68 67 71 73 69 65 62 66 79 89 95 97 91 67 73 67 61 66 76 82 84 78 54 20 355
48 48 40 36 40 39 45 33 22 40 59 57 50 50 51 49 54 61 70 80 85 77 69 65 61 68 80 87 88 89 84 89 84 82 75 88 88 79 59 45 50 36 21
48 43 45 46 40 36 37 43 47 54 56 51 47 54 63 61 65 70 74 80 75 71 66 62 58 69 79 85 90 99 92 99 107 104 97 94 87 79 66 64 75 94 80
49 55 54 56 53 53 55 56 58 60 52 42 41 43 51 60 70 70 73 75 74 77 72 61 73 86 105 112 102 90 108 105 108 89 67 52 41 41 51 79 95 103 115
60 47 63 68 62 59 58 50 47 49 51 48 46 48 58 63 72 80 79 86 95 78 79 90 91 87 90 98 106 112 118 111 49 38 21 15 354 340 344 322 302 70 42
50 36 31 30 40 40 41 46 49 46 46 40 46 49 64 84 80 75 86 97 96 93 105 108 96 83 82 81 79 60 21 7 357 345 337 330 321 311 313 283 261 267 268
47 48 54 59 53 48 46 45 46 51 63 56 62 70 87 100 95 86 72 62 55 50 56 48 27 15 11 12 5 356 339 349 17 1 9 31 26 21 38 26 347 266 300
52 57 52 59 66 69 69 65 52 75 72 82 89 93 104 100 77 41 33 41 49 49 51 54 44 47 43 48 40 39 29 22 24 42 48 23 20 11 2 22 4 316 347
75 86 78 74 76 79 80 77 81 81 87 80 70 60 46 27 28 44 52 44 38 40 43 40 39 35 29 31 63 38 15 10 7 8 11 8 350 344 355 350 331 331 322
102 86 74 75 61 45 38 50 79 93 51 58 53 66 75 66 49 52 58 49 44 43 44 53 51 50 41 44 52 44 38 34 31 27 27 20 30 335 351 340 357 28 21
97 99 88 48 25 16 17 56 74 90 106 79 74 56 43 58 57 56 56 57 58 57 57 54 50 47 43 43 44 43 36 35 31 27 27 30 40 54 78 65 51 36 35
108 105 51 13 15 10 18 58 77 87 83 62 43 43 68 65 63 61 63 56 54 53 52 50 49 46 43 43 42 40 37 33 32 31 30 25 31 36 42 46 33 32 32
80 39 19 1 34 69 89 71 53 56 66 75 68 68 70 71 69 65 63 63 62 54 47 49 48 45 41 37 35 34 32 29 29 30 30 28 35 35 36 37 42 41 29
35 17 14 15 18 38 37 47 84 77 77 74 70 68 68 68 70 72 68 61 55 50 44 40 41 38 36 36 34 31 27 24 27 32 36 32 33 34 31 30 30 26 29
40 92 60 19 38 82 76 73 74 77 77 77 75 71 66 63 60 65 67 68 53 43 38 40 40 37 33 31 30 30 28 26 29 39 38 28 27 28 31 31 29 26 26
108 122 46 26 48 80 81 82 81 77 72 69 69 68 65 61 57 58 63 58 52 36 31 35 36 36 34 32 30 29 30 33 39 42 39 27 28 37 35 35 29 26 35
123 115 61 42 78 82 82 81 83 81 78 75 73 69 64 59 57 58 56 55 49 38 33 31 30 31 31 30 28 27 30 34 43 47 39 27 36 39 37 35 29 27 38